Regional Weather Roundup
Issued by NWS

Home | Current Version | Previous Version | Text Only | Print | Product List | Glossary Off
Versions: 1 2 3 4 5 6 7 8 9 10 11 12 13 14 15 16 17 18 19 20 21 22 23 24 25 26 27 28 29 30 31 32 33 34 35 36 37 38 39 40 41 42 43 44 45 46 47 48 49 50

000
ASUS43 KLSX 262059
RWRMO

WEATHER SUMMARY FOR MISSOURI
NATIONAL WEATHER SERVICE SPRINGFIELD MO
300 PM CST MON JAN 26 2015

NOTE: "FAIR" INDICATES FEW OR NO CLOUDS BELOW 12,000 FEET WITH NO
       SIGNIFICANT WEATHER AND/OR OBSTRUCTIONS TO VISIBILITY.
       CURRENT SKY AND/OR WEATHER CONDITIONS ARE NOT AVAILABLE FOR
       CHILLICOTHE AND FARMINGTON.

MOZ001>031-035>038-043-044-053-054-262200-
...NORTHERN AND WESTERN MISSOURI...

CITY           SKY/WX    TMP DP  RH WIND       PRES   REMARKS
KANSAS CTY INT MOSUNNY   59  36  42 NW15      29.90S
KANSAS C DTWN  MOSUNNY   61  36  39 NW12      29.89F
LEE`S SUMMIT   SUNNY     59  36  42 NW15      29.90S
ST JOSEPH      SUNNY     61  35  37 NW18      29.91R
CHILLICOTHE      N/A     55  37  50 NW14G21   29.88R

$$
MOZ066>068-077>081-088>096-101>105-262200-
...SOUTHWEST MISSOURI...

CITY           SKY/WX    TMP DP  RH WIND       PRES   REMARKS
SPRINGFIELD    SUNNY     57  31  37 W16       29.93S
JOPLIN         SUNNY     58  34  40 W15       29.96F

$$
MOZ032>034-039>042-045>050-055>058-069>072-262200-
...CENTRAL MISSOURI...

CITY           SKY/WX    TMP DP  RH WIND       PRES   REMARKS
COLUMBIA       SUNNY     51  36  56 W16G25    29.84F
JEFFERSON CITY SUNNY     54  34  46 W14G23    29.85F
ROLLA          MOSUNNY   51  33  50 W15       29.82R
SEDALIA        SUNNY     54  38  54 W20       29.88R
OSAGE BEACH    SUNNY     54  34  47 SW15G21   29.85R

$$
MOZ051-052-059>065-262200-
...EAST CENTRAL MISSOURI...

CITY           SKY/WX    TMP DP  RH WIND       PRES   REMARKS
ST LOUIS INTL  NOT AVBL
SPIRIT OF STL  MOSUNNY   44  31  60 VRB5      29.85F
ST CHARLES     PTSUNNY   38  30  73 SE6       29.88R

$$
MOZ072>076-082>087-097>100-106>115-262200-
...SOUTH CENTRAL AND SOUTHEAST MISSOURI...

CITY           SKY/WX    TMP DP  RH WIND       PRES   REMARKS
CAPE GIRARDEAU CLOUDY    39  31  72 SW8       29.95S
FARMINGTON     PTSUNNY   43  28  56 MISG      29.91F
POPLAR BLUFF   CLOUDY    44  33  65 S9        29.92F
WEST PLAINS    SUNNY     52  30  43 SW13      29.89F

$$



USA.gov is the U.S. government's official web portal to all federal, state and local government web resources and services.